Clearfield, PA

5:00 AM EDT on April 29, 2017 (GMT -0400)
Clearfield-Lawrence

Weather History for KFIG - March, 2013

Change the Weather History Date:

Wednesday, March 20, 2013

  Actual Average (KDUJ) Record (KDUJ)
Temperature  
Mean Temperature 29 °F -  
Max Temperature 34 °F 44 °F 73 °F (1976)
Min Temperature 24 °F 27 °F 8 °F (1986)
Degree Days  
Heating Degree Days 36    
Moisture  
Dew Point 16 °F    
Average Humidity 60    
Maximum Humidity 80    
Minimum Humidity 48    
Precipitation  
Precipitation 0.00 in - - ()
Sea Level Pressure  
Sea Level Pressure 29.86 in    
Wind  
Wind Speed 11 mph (West)    
Max Wind Speed 21 mph    
Max Gust Speed 34 mph    
Visibility 9 miles    
Events Snow    
Averages and records for this station are not official NWS values.
T = Trace of Precipitation, MM = Missing Value Source: NWS Daily Summary

Daily Weather History Graph

Daily Weather History Graph

Search for Another Location

Airport or City:

Trip Planner

Search our weather history database for the weather conditions in past years. The results will help you decide how hot, cold, wet, or windy it might be!

Date:

Astronomy

Mar. 20, 2013 Rise Set
Actual Time 7:16 AM EDT 7:26 PM EDT
Civil Twilight 6:49 AM EDT 7:53 PM EDT
Nautical Twilight 6:17 AM EDT 8:25 PM EDT
Astronomical Twilight 5:44 AM EDT 8:58 PM EDT
Moon 12:56 PM EDT (3/20) 2:57 AM EDT (3/20)
Length of Visible Light 13h 04m
Length of Day
12h 09m
First Quarter, 59% of the Moon is Illuminated
Mar 20
First Quarter
Mar 27
Full
Apr 3
Last Quarter
Apr 10
New
Apr 18
First Quarter

Hourly Weather History & Observations

Time (EDT) Temp. Windchill Dew Point Humidity Pressure Visibility Wind Dir Wind Speed Gust Speed Precip Events Conditions
12:54 AM 27.0 °F 15.6 °F 17.1 °F 66% 29.90 in 10.0 mi WSW 13.8 mph 23.0 mph N/A   Overcast
1:54 AM 26.1 °F 16.8 °F 15.1 °F 63% 29.89 in 10.0 mi WSW 9.2 mph - N/A   Scattered Clouds
2:54 AM 27.0 °F 19.5 °F 15.1 °F 61% 29.89 in 10.0 mi West 6.9 mph - N/A   Overcast
3:54 AM 27.0 °F 18.0 °F 15.1 °F 61% 29.90 in 10.0 mi West 9.2 mph - N/A   Overcast
4:54 AM 26.1 °F 15.0 °F 16.0 °F 66% 29.90 in 10.0 mi West 12.7 mph 19.6 mph 0.00 in   Overcast
5:54 AM 26.1 °F 15.0 °F 15.1 °F 63% 29.91 in 10.0 mi WSW 12.7 mph 19.6 mph 0.00 in   Overcast
6:54 AM 24.1 °F 16.0 °F 12.9 °F 62% 29.93 in 10.0 mi SW 6.9 mph - N/A   Mostly Cloudy
7:54 AM 25.0 °F 16.3 °F 14.0 °F 63% 29.94 in 10.0 mi WSW 8.1 mph - N/A   Overcast
8:54 AM 26.1 °F 16.8 °F 12.9 °F 58% 29.94 in 10.0 mi WSW 9.2 mph 18.4 mph N/A   Mostly Cloudy
9:54 AM 28.0 °F 18.6 °F 14.0 °F 56% 29.92 in 10.0 mi WSW 10.4 mph 20.7 mph N/A   Scattered Clouds
10:54 AM 30.0 °F 18.7 °F 15.1 °F 54% 29.89 in 10.0 mi WSW 16.1 mph 21.9 mph N/A   Clear
11:54 AM 32.0 °F 21.6 °F 14.0 °F 48% 29.88 in 10.0 mi West 15.0 mph 26.5 mph N/A   Mostly Cloudy
12:54 PM 33.1 °F 22.6 °F 15.1 °F 48% 29.85 in 10.0 mi WSW 16.1 mph 26.5 mph N/A   Overcast
1:54 PM 32.0 °F 21.2 °F 18.0 °F 56% 29.84 in 10.0 mi West 16.1 mph 23.0 mph 0.00 in   Overcast
2:23 PM 32.0 °F 21.6 °F 23.0 °F 69% 29.79 in 1.8 mi West 15.0 mph 25.3 mph 0.00 in Snow Light Snow
2:29 PM 30.2 °F 22.6 °F 24.8 °F 80% 29.79 in 1.0 mi West 8.1 mph 21.9 mph 0.00 in Snow Light Snow
2:36 PM 30.2 °F 19.8 °F 21.2 °F 69% 29.78 in 3.0 mi West 13.8 mph 19.6 mph 0.00 in Snow Light Snow
2:43 PM 33.8 °F 23.9 °F 19.4 °F 56% 29.77 in 9.0 mi West 15.0 mph 23.0 mph 0.00 in   Mostly Cloudy
2:54 PM 34.0 °F 22.4 °F 17.1 °F 50% 29.82 in 10.0 mi WSW 20.7 mph 34.5 mph 0.00 in   Scattered Clouds
3:54 PM 30.9 °F 21.2 °F 19.9 °F 64% 29.83 in 10.0 mi WNW 12.7 mph 18.4 mph 0.00 in   Overcast
4:54 PM 32.0 °F 22.5 °F 19.0 °F 59% 29.83 in 10.0 mi WNW 12.7 mph 19.6 mph N/A   Mostly Cloudy
5:54 PM 30.9 °F 22.2 °F 19.0 °F 61% 29.83 in 10.0 mi West 10.4 mph - N/A   Mostly Cloudy
6:54 PM 30.0 °F 21.1 °F 16.0 °F 56% 29.83 in 10.0 mi NW 10.4 mph - N/A   Mostly Cloudy
7:54 PM 28.9 °F 20.4 °F 14.0 °F 54% 29.84 in 10.0 mi WNW 9.2 mph 19.6 mph 0.00 in   Overcast
8:54 PM 28.0 °F 18.1 °F 12.0 °F 51% 29.86 in 10.0 mi West 11.5 mph 21.9 mph N/A   Overcast
9:54 PM 27.0 °F 19.5 °F 15.1 °F 61% 29.87 in 10.0 mi West 6.9 mph - 0.00 in   Overcast
10:54 PM 26.1 °F 17.6 °F 12.9 °F 58% 29.87 in 10.0 mi West 8.1 mph - N/A   Overcast
11:54 PM 25.0 °F 19.3 °F 15.1 °F 66% 29.87 in 10.0 mi North 4.6 mph - N/A   Overcast